owner,sensor,date,latitude,longitude,vertical_datum,wind_speed,wind_to_direction,wind_speed_of_gust,qcFlag 
DISL,ioos:station:DISL:MHPA:1,2010-03-01T00:00:00Z,30.6671,-87.9365,8.5,4.5,164.4,-9999.0,'1111122,1111122,1111122' 
DISL,ioos:station:DISL:MHPA:1,2010-03-01T00:30:00Z,30.6671,-87.9365,8.5,4.95,174.2,-9999.0,'1111122,1111122,1111122' 
DISL,ioos:station:DISL:MHPA:1,2010-03-01T01:00:00Z,30.6671,-87.9365,8.5,3.49,177.2,-9999.0,'1111122,1111122,1111122' 
DISL,ioos:station:DISL:MHPA:1,2010-03-01T01:30:00Z,30.6671,-87.9365,8.5,4.66,194.5,-9999.0,'1111122,1111122,1111122' 
DISL,ioos:station:DISL:MHPA:1,2010-03-01T02:00:00Z,30.6671,-87.9365,8.5,2.88,177.0,-9999.0,'1111122,1111122,1111122' 
DISL,ioos:station:DISL:MHPA:1,2010-03-01T02:30:00Z,30.6671,-87.9365,8.5,2.58,171.2,-9999.0,'1111122,1111122,1111122' 
DISL,ioos:station:DISL:MHPA:1,2010-03-01T03:00:00Z,30.6671,-87.9365,8.5,2.28,158.0,-9999.0,'1111122,1111122,1111122' 
DISL,ioos:station:DISL:MHPA:1,2010-03-01T03:30:00Z,30.6671,-87.9365,8.5,2.12,169.6,-9999.0,'1111122,1111122,1111122' 
DISL,ioos:station:DISL:MHPA:1,2010-03-01T04:00:00Z,30.6671,-87.9365,8.5,1.0,161.8,-9999.0,'1111122,1111122,1111122' 
DISL,ioos:station:DISL:MHPA:1,2010-03-01T04:30:00Z,30.6671,-87.9365,8.5,1.41,145.6,-9999.0,'1111122,1111122,1111122' 
DISL,ioos:station:DISL:MHPA:1,2010-03-01T05:00:00Z,30.6671,-87.9365,8.5,0.85,126.8,-9999.0,'1111122,1111122,1111122' 
DISL,ioos:station:DISL:MHPA:1,2010-03-01T05:30:00Z,30.6671,-87.9365,8.5,0.9,146.0,-9999.0,'1111122,1111122,1111122' 
DISL,ioos:station:DISL:MHPA:1,2010-03-01T06:00:00Z,30.6671,-87.9365,8.5,0.67,103.7,-9999.0,'1111122,1111122,1111122' 
DISL,ioos:station:DISL:MHPA:1,2010-03-01T06:30:00Z,30.6671,-87.9365,8.5,0.52,40.58,-9999.0,'1111122,1111122,1111122' 
DISL,ioos:station:DISL:MHPA:1,2010-03-01T07:00:00Z,30.6671,-87.9365,8.5,0.5,36.82,-9999.0,'1111122,1111122,1111122' 
DISL,ioos:station:DISL:MHPA:1,2010-03-01T07:30:00Z,30.6671,-87.9365,8.5,0.9,31.16,-9999.0,'1111122,1111122,1111122' 
DISL,ioos:station:DISL:MHPA:1,2010-03-01T08:00:00Z,30.6671,-87.9365,8.5,1.27,33.17,-9999.0,'1111122,1111122,1111122' 
DISL,ioos:station:DISL:MHPA:1,2010-03-01T08:30:00Z,30.6671,-87.9365,8.5,2.05,23.74,-9999.0,'1111122,1111122,1111122' 
DISL,ioos:station:DISL:MHPA:1,2010-03-01T09:00:00Z,30.6671,-87.9365,8.5,2.02,26.4,-9999.0,'1111122,1111122,1111122' 
DISL,ioos:station:DISL:MHPA:1,2010-03-01T09:30:00Z,30.6671,-87.9365,8.5,2.02,29.84,-9999.0,'1111122,1111122,1111122' 
DISL,ioos:station:DISL:MHPA:1,2010-03-01T10:00:00Z,30.6671,-87.9365,8.5,1.31,48.48,-9999.0,'1111122,1111122,1111122' 
DISL,ioos:station:DISL:MHPA:1,2010-03-01T10:30:00Z,30.6671,-87.9365,8.5,1.05,58.12,-9999.0,'1111122,1111122,1111122' 
DISL,ioos:station:DISL:MHPA:1,2010-03-01T11:00:00Z,30.6671,-87.9365,8.5,0.77,81.3,-9999.0,'1111122,1111122,1111122' 
DISL,ioos:station:DISL:MHPA:1,2010-03-01T11:30:00Z,30.6671,-87.9365,8.5,0.81,108.0,-9999.0,'1111122,1111122,1111122' 
DISL,ioos:station:DISL:MHPA:1,2010-03-01T12:00:00Z,30.6671,-87.9365,8.5,0.64,35.46,-9999.0,'1111122,1111122,1111122' 
DISL,ioos:station:DISL:MHPA:1,2010-03-01T12:30:00Z,30.6671,-87.9365,8.5,1.37,80.3,-9999.0,'1111122,1111122,1111122' 
DISL,ioos:station:DISL:MHPA:1,2010-03-01T13:00:00Z,30.6671,-87.9365,8.5,1.64,93.8,-9999.0,'1111122,1111122,1111122' 
DISL,ioos:station:DISL:MHPA:1,2010-03-01T13:30:00Z,30.6671,-87.9365,8.5,2.64,89.2,-9999.0,'1111122,1111122,1111122' 
DISL,ioos:station:DISL:MHPA:1,2010-03-01T14:00:00Z,30.6671,-87.9365,8.5,1.32,168.1,-9999.0,'1111122,1111122,1111122' 
DISL,ioos:station:DISL:MHPA:1,2010-03-01T14:30:00Z,30.6671,-87.9365,8.5,1.42,114.0,-9999.0,'1111122,1111122,1111122' 
DISL,ioos:station:DISL:MHPA:1,2010-03-01T15:00:00Z,30.6671,-87.9365,8.5,1.98,138.8,-9999.0,'1111122,1111122,1111122' 
DISL,ioos:station:DISL:MHPA:1,2010-03-01T15:30:00Z,30.6671,-87.9365,8.5,0.48,268.5,-9999.0,'1111122,1111122,1111122' 
DISL,ioos:station:DISL:MHPA:1,2010-03-01T16:00:00Z,30.6671,-87.9365,8.5,0.9,268.5,-9999.0,'1111122,1111122,1111122' 
DISL,ioos:station:DISL:MHPA:1,2010-03-01T16:30:00Z,30.6671,-87.9365,8.5,1.09,238.0,-9999.0,'1111122,1111122,1111122' 
DISL,ioos:station:DISL:MHPA:1,2010-03-01T17:00:00Z,30.6671,-87.9365,8.5,1.54,215.6,-9999.0,'1111122,1111122,1111122' 
DISL,ioos:station:DISL:MHPA:1,2010-03-01T17:30:00Z,30.6671,-87.9365,8.5,1.16,239.0,-9999.0,'1111122,1111122,1111122' 
DISL,ioos:station:DISL:MHPA:1,2010-03-01T18:00:00Z,30.6671,-87.9365,8.5,1.99,218.8,-9999.0,'1111122,1111122,1111122' 
DISL,ioos:station:DISL:MHPA:1,2010-03-01T18:30:00Z,30.6671,-87.9365,8.5,1.85,213.4,-9999.0,'1111122,1111122,1111122' 
DISL,ioos:station:DISL:MHPA:1,2010-03-01T19:00:00Z,30.6671,-87.9365,8.5,2.56,192.4,-9999.0,'1111122,1111122,1111122' 
DISL,ioos:station:DISL:MHPA:1,2010-03-01T19:30:00Z,30.6671,-87.9365,8.5,6.54,121.1,-9999.0,'1111122,1111122,1111122' 
DISL,ioos:station:DISL:MHPA:1,2010-03-01T20:00:00Z,30.6671,-87.9365,8.5,6.4,122.9,-9999.0,'1111122,1111122,1111122' 
DISL,ioos:station:DISL:MHPA:1,2010-03-01T20:30:00Z,30.6671,-87.9365,8.5,5.65,124.1,-9999.0,'1111122,1111122,1111122' 
DISL,ioos:station:DISL:MHPA:1,2010-03-01T21:00:00Z,30.6671,-87.9365,8.5,5.99,141.6,-9999.0,'1111122,1111122,1111122' 
DISL,ioos:station:DISL:MHPA:1,2010-03-01T21:30:00Z,30.6671,-87.9365,8.5,5.11,126.9,-9999.0,'1111122,1111122,1111122' 
DISL,ioos:station:DISL:MHPA:1,2010-03-01T22:00:00Z,30.6671,-87.9365,8.5,4.6,117.1,-9999.0,'1111122,1111122,1111122' 
DISL,ioos:station:DISL:MHPA:1,2010-03-01T22:30:00Z,30.6671,-87.9365,8.5,1.96,61.05,-9999.0,'1111122,1111122,1111122' 
DISL,ioos:station:DISL:MHPA:1,2010-03-01T23:00:00Z,30.6671,-87.9365,8.5,3.94,6.775,-9999.0,'1111122,1111122,1111122' 
DISL,ioos:station:DISL:MHPA:1,2010-03-01T23:30:00Z,30.6671,-87.9365,8.5,5.89,358.0,-9999.0,'1111122,1111122,1111122' 
DISL,ioos:station:DISL:MHPA:1,2010-03-02T00:00:00Z,30.6671,-87.9365,8.5,4.73,14.0,-9999.0,'1111122,1111122,1111122' 
DISL,ioos:station:DISL:MHPA:1,2010-03-02T00:30:00Z,30.6671,-87.9365,8.5,5.35,39.69,-9999.0,'1111122,1111122,1111122' 
DISL,ioos:station:DISL:MHPA:1,2010-03-02T01:00:00Z,30.6671,-87.9365,8.5,4.51,36.02,-9999.0,'1111122,1111122,1111122' 
DISL,ioos:station:DISL:MHPA:1,2010-03-02T01:30:00Z,30.6671,-87.9365,8.5,5.8,47.43,-9999.0,'1111122,1111122,1111122' 
DISL,ioos:station:DISL:MHPA:1,2010-03-02T02:00:00Z,30.6671,-87.9365,8.5,4.14,30.33,-9999.0,'1111122,1111122,1111122' 
DISL,ioos:station:DISL:MHPA:1,2010-03-02T02:30:00Z,30.6671,-87.9365,8.5,10.81,316.3,-9999.0,'1111122,1111122,1111122' 
DISL,ioos:station:DISL:MHPA:1,2010-03-02T03:00:00Z,30.6671,-87.9365,8.5,10.28,329.8,-9999.0,'1111122,1111122,1111122' 
DISL,ioos:station:DISL:MHPA:1,2010-03-02T03:30:00Z,30.6671,-87.9365,8.5,10.79,336.8,-9999.0,'1111122,1111122,1111122' 
DISL,ioos:station:DISL:MHPA:1,2010-03-02T04:00:00Z,30.6671,-87.9365,8.5,8.03,352.6,-9999.0,'1111122,1111122,1111122' 
DISL,ioos:station:DISL:MHPA:1,2010-03-02T04:30:00Z,30.6671,-87.9365,8.5,9.0,42.64,-9999.0,'1111122,1111122,1111122' 
DISL,ioos:station:DISL:MHPA:1,2010-03-02T05:00:00Z,30.6671,-87.9365,8.5,8.27,54.54,-9999.0,'1111122,1111122,1111122' 
DISL,ioos:station:DISL:MHPA:1,2010-03-02T05:30:00Z,30.6671,-87.9365,8.5,6.62,46.6,-9999.0,'1111122,1111122,1111122' 
DISL,ioos:station:DISL:MHPA:1,2010-03-02T06:00:00Z,30.6671,-87.9365,8.5,3.98,11.83,-9999.0,'1111122,1111122,1111122' 
DISL,ioos:station:DISL:MHPA:1,2010-03-02T06:30:00Z,30.6671,-87.9365,8.5,3.04,352.9,-9999.0,'1111122,1111122,1111122' 
DISL,ioos:station:DISL:MHPA:1,2010-03-02T07:00:00Z,30.6671,-87.9365,8.5,2.32,341.5,-9999.0,'1111122,1111122,1111122' 
DISL,ioos:station:DISL:MHPA:1,2010-03-02T07:30:00Z,30.6671,-87.9365,8.5,2.58,343.5,-9999.0,'1111122,1111122,1111122' 
DISL,ioos:station:DISL:MHPA:1,2010-03-02T08:00:00Z,30.6671,-87.9365,8.5,3.35,1.779,-9999.0,'1111122,1111122,1111122' 
DISL,ioos:station:DISL:MHPA:1,2010-03-02T08:30:00Z,30.6671,-87.9365,8.5,2.69,1.729,-9999.0,'1111122,1111122,1111122' 
DISL,ioos:station:DISL:MHPA:1,2010-03-02T09:00:00Z,30.6671,-87.9365,8.5,3.61,355.7,-9999.0,'1111122,1111122,1111122' 
DISL,ioos:station:DISL:MHPA:1,2010-03-02T09:30:00Z,30.6671,-87.9365,8.5,2.45,335.4,-9999.0,'1111122,1111122,1111122' 
DISL,ioos:station:DISL:MHPA:1,2010-03-02T10:00:00Z,30.6671,-87.9365,8.5,3.1,356.0,-9999.0,'1111122,1111122,1111122' 
DISL,ioos:station:DISL:MHPA:1,2010-03-02T10:30:00Z,30.6671,-87.9365,8.5,3.25,339.6,-9999.0,'1111122,1111122,1111122' 
DISL,ioos:station:DISL:MHPA:1,2010-03-02T11:00:00Z,30.6671,-87.9365,8.5,4.99,320.0,-9999.0,'1111122,1111122,1111122' 
DISL,ioos:station:DISL:MHPA:1,2010-03-02T11:30:00Z,30.6671,-87.9365,8.5,5.1,322.8,-9999.0,'1111122,1111122,1111122' 
DISL,ioos:station:DISL:MHPA:1,2010-03-02T12:00:00Z,30.6671,-87.9365,8.5,5.53,326.0,-9999.0,'1111122,1111122,1111122' 
DISL,ioos:station:DISL:MHPA:1,2010-03-02T12:30:00Z,30.6671,-87.9365,8.5,6.7,335.8,-9999.0,'1111122,1111122,1111122' 
DISL,ioos:station:DISL:MHPA:1,2010-03-02T13:00:00Z,30.6671,-87.9365,8.5,6.78,330.0,-9999.0,'1111122,1111122,1111122' 
DISL,ioos:station:DISL:MHPA:1,2010-03-02T13:30:00Z,30.6671,-87.9365,8.5,7.29,328.6,-9999.0,'1111122,1111122,1111122' 
DISL,ioos:station:DISL:MHPA:1,2010-03-02T14:00:00Z,30.6671,-87.9365,8.5,6.49,327.3,-9999.0,'1111122,1111122,1111122' 
DISL,ioos:station:DISL:MHPA:1,2010-03-02T14:30:00Z,30.6671,-87.9365,8.5,6.84,330.7,-9999.0,'1111122,1111122,1111122' 
DISL,ioos:station:DISL:MHPA:1,2010-03-02T15:00:00Z,30.6671,-87.9365,8.5,7.59,343.1,-9999.0,'1111122,1111122,1111122' 
DISL,ioos:station:DISL:MHPA:1,2010-03-02T15:30:00Z,30.6671,-87.9365,8.5,6.82,328.5,-9999.0,'1111122,1111122,1111122' 
DISL,ioos:station:DISL:MHPA:1,2010-03-02T16:00:00Z,30.6671,-87.9365,8.5,6.88,327.7,-9999.0,'1111122,1111122,1111122' 
DISL,ioos:station:DISL:MHPA:1,2010-03-02T16:30:00Z,30.6671,-87.9365,8.5,7.97,331.7,-9999.0,'1111122,1111122,1111122' 
DISL,ioos:station:DISL:MHPA:1,2010-03-02T17:00:00Z,30.6671,-87.9365,8.5,7.52,332.9,-9999.0,'1111122,1111122,1111122' 
DISL,ioos:station:DISL:MHPA:1,2010-03-02T17:30:00Z,30.6671,-87.9365,8.5,7.86,332.5,-9999.0,'1111122,1111122,1111122' 
DISL,ioos:station:DISL:MHPA:1,2010-03-02T18:00:00Z,30.6671,-87.9365,8.5,8.08,337.3,-9999.0,'1111122,1111122,1111122' 
DISL,ioos:station:DISL:MHPA:1,2010-03-02T18:30:00Z,30.6671,-87.9365,8.5,6.65,336.9,-9999.0,'1111122,1111122,1111122' 
DISL,ioos:station:DISL:MHPA:1,2010-03-02T19:00:00Z,30.6671,-87.9365,8.5,7.39,331.2,-9999.0,'1111122,1111122,1111122' 
DISL,ioos:station:DISL:MHPA:1,2010-03-02T19:30:00Z,30.6671,-87.9365,8.5,5.78,322.4,-9999.0,'1111122,1111122,1111122' 
DISL,ioos:station:DISL:MHPA:1,2010-03-02T20:00:00Z,30.6671,-87.9365,8.5,7.12,320.2,-9999.0,'1111122,1111122,1111122' 
DISL,ioos:station:DISL:MHPA:1,2010-03-02T20:30:00Z,30.6671,-87.9365,8.5,8.96,324.3,-9999.0,'1111122,1111122,1111122' 
DISL,ioos:station:DISL:MHPA:1,2010-03-02T21:00:00Z,30.6671,-87.9365,8.5,7.0,329.9,-9999.0,'1111122,1111122,1111122' 
DISL,ioos:station:DISL:MHPA:1,2010-03-02T21:30:00Z,30.6671,-87.9365,8.5,7.19,328.0,-9999.0,'1111122,1111122,1111122' 
DISL,ioos:station:DISL:MHPA:1,2010-03-02T22:00:00Z,30.6671,-87.9365,8.5,8.68,315.1,-9999.0,'1111122,1111122,1111122' 
DISL,ioos:station:DISL:MHPA:1,2010-03-02T22:30:00Z,30.6671,-87.9365,8.5,8.58,327.9,-9999.0,'1111122,1111122,1111122' 
DISL,ioos:station:DISL:MHPA:1,2010-03-02T23:00:00Z,30.6671,-87.9365,8.5,6.79,328.8,-9999.0,'1111122,1111122,1111122' 
DISL,ioos:station:DISL:MHPA:1,2010-03-02T23:30:00Z,30.6671,-87.9365,8.5,6.68,337.4,-9999.0,'1111122,1111122,1111122' 
DISL,ioos:station:DISL:MHPA:1,2010-03-03T00:00:00Z,30.6671,-87.9365,8.5,6.96,327.1,-9999.0,'1111122,1111122,1111122' 
DISL,ioos:station:DISL:MHPA:1,2010-03-03T00:30:00Z,30.6671,-87.9365,8.5,5.8,325.8,-9999.0,'1111122,1111122,1111122' 
DISL,ioos:station:DISL:MHPA:1,2010-03-03T01:00:00Z,30.6671,-87.9365,8.5,6.67,320.3,-9999.0,'1111122,1111122,1111122' 
DISL,ioos:station:DISL:MHPA:1,2010-03-03T01:30:00Z,30.6671,-87.9365,8.5,6.6,322.9,-9999.0,'1111122,1111122,1111122' 
DISL,ioos:station:DISL:MHPA:1,2010-03-03T02:00:00Z,30.6671,-87.9365,8.5,7.15,323.5,-9999.0,'1111122,1111122,1111122' 
DISL,ioos:station:DISL:MHPA:1,2010-03-03T02:30:00Z,30.6671,-87.9365,8.5,6.35,325.3,-9999.0,'1111122,1111122,1111122' 
DISL,ioos:station:DISL:MHPA:1,2010-03-03T03:00:00Z,30.6671,-87.9365,8.5,5.41,319.4,-9999.0,'1111122,1111122,1111122' 
DISL,ioos:station:DISL:MHPA:1,2010-03-03T03:30:00Z,30.6671,-87.9365,8.5,5.74,333.8,-9999.0,'1111122,1111122,1111122' 
DISL,ioos:station:DISL:MHPA:1,2010-03-03T04:00:00Z,30.6671,-87.9365,8.5,5.85,323.2,-9999.0,'1111122,1111122,1111122' 
DISL,ioos:station:DISL:MHPA:1,2010-03-03T04:30:00Z,30.6671,-87.9365,8.5,4.65,322.9,-9999.0,'1111122,1111122,1111122' 
DISL,ioos:station:DISL:MHPA:1,2010-03-03T05:00:00Z,30.6671,-87.9365,8.5,4.65,319.8,-9999.0,'1111122,1111122,1111122' 
DISL,ioos:station:DISL:MHPA:1,2010-03-03T05:30:00Z,30.6671,-87.9365,8.5,4.35,318.0,-9999.0,'1111122,1111122,1111122' 
DISL,ioos:station:DISL:MHPA:1,2010-03-03T06:00:00Z,30.6671,-87.9365,8.5,4.07,321.0,-9999.0,'1111122,1111122,1111122' 
DISL,ioos:station:DISL:MHPA:1,2010-03-03T06:30:00Z,30.6671,-87.9365,8.5,4.07,322.9,-9999.0,'1111122,1111122,1111122' 
DISL,ioos:station:DISL:MHPA:1,2010-03-03T07:00:00Z,30.6671,-87.9365,8.5,4.05,329.0,-9999.0,'1111122,1111122,1111122' 
DISL,ioos:station:DISL:MHPA:1,2010-03-03T07:30:00Z,30.6671,-87.9365,8.5,4.79,316.4,-9999.0,'1111122,1111122,1111122' 
DISL,ioos:station:DISL:MHPA:1,2010-03-03T08:00:00Z,30.6671,-87.9365,8.5,5.1,315.4,-9999.0,'1111122,1111122,1111122' 
DISL,ioos:station:DISL:MHPA:1,2010-03-03T08:30:00Z,30.6671,-87.9365,8.5,5.09,304.4,-9999.0,'1111122,1111122,1111122' 
DISL,ioos:station:DISL:MHPA:1,2010-03-03T09:00:00Z,30.6671,-87.9365,8.5,4.95,306.5,-9999.0,'1111122,1111122,1111122' 
DISL,ioos:station:DISL:MHPA:1,2010-03-03T09:30:00Z,30.6671,-87.9365,8.5,4.75,311.2,-9999.0,'1111122,1111122,1111122' 
DISL,ioos:station:DISL:MHPA:1,2010-03-03T10:00:00Z,30.6671,-87.9365,8.5,4.89,316.8,-9999.0,'1111122,1111122,1111122' 
DISL,ioos:station:DISL:MHPA:1,2010-03-03T10:30:00Z,30.6671,-87.9365,8.5,5.99,322.0,-9999.0,'1111122,1111122,1111122' 
DISL,ioos:station:DISL:MHPA:1,2010-03-03T11:00:00Z,30.6671,-87.9365,8.5,5.68,316.2,-9999.0,'1111122,1111122,1111122' 
DISL,ioos:station:DISL:MHPA:1,2010-03-03T11:30:00Z,30.6671,-87.9365,8.5,4.83,313.8,-9999.0,'1111122,1111122,1111122' 
DISL,ioos:station:DISL:MHPA:1,2010-03-03T12:00:00Z,30.6671,-87.9365,8.5,4.97,317.6,-9999.0,'1111122,1111122,1111122' 
DISL,ioos:station:DISL:MHPA:1,2010-03-03T12:30:00Z,30.6671,-87.9365,8.5,4.94,321.7,-9999.0,'1111122,1111122,1111122' 
DISL,ioos:station:DISL:MHPA:1,2010-03-03T13:00:00Z,30.6671,-87.9365,8.5,5.47,325.8,-9999.0,'1111122,1111122,1111122' 
DISL,ioos:station:DISL:MHPA:1,2010-03-03T13:30:00Z,30.6671,-87.9365,8.5,5.72,321.7,-9999.0,'1111122,1111122,1111122' 
DISL,ioos:station:DISL:MHPA:1,2010-03-03T14:00:00Z,30.6671,-87.9365,8.5,5.65,329.5,-9999.0,'1111122,1111122,1111122' 
DISL,ioos:station:DISL:MHPA:1,2010-03-03T14:30:00Z,30.6671,-87.9365,8.5,5.45,331.3,-9999.0,'1111122,1111122,1111122' 
DISL,ioos:station:DISL:MHPA:1,2010-03-03T15:00:00Z,30.6671,-87.9365,8.5,5.42,341.0,-9999.0,'1111122,1111122,1111122' 
DISL,ioos:station:DISL:MHPA:1,2010-03-03T15:30:00Z,30.6671,-87.9365,8.5,6.79,325.1,-9999.0,'1111122,1111122,1111122' 
DISL,ioos:station:DISL:MHPA:1,2010-03-03T16:00:00Z,30.6671,-87.9365,8.5,5.59,322.5,-9999.0,'1111122,1111122,1111122' 
DISL,ioos:station:DISL:MHPA:1,2010-03-03T16:30:00Z,30.6671,-87.9365,8.5,6.14,328.0,-9999.0,'1111122,1111122,1111122' 
DISL,ioos:station:DISL:MHPA:1,2010-03-03T17:00:00Z,30.6671,-87.9365,8.5,5.38,326.6,-9999.0,'1111122,1111122,1111122' 
DISL,ioos:station:DISL:MHPA:1,2010-03-03T17:30:00Z,30.6671,-87.9365,8.5,5.69,327.7,-9999.0,'1111122,1111122,1111122' 
DISL,ioos:station:DISL:MHPA:1,2010-03-03T18:00:00Z,30.6671,-87.9365,8.5,5.53,319.0,-9999.0,'1111122,1111122,1111122' 
DISL,ioos:station:DISL:MHPA:1,2010-03-03T18:30:00Z,30.6671,-87.9365,8.5,5.08,321.1,-9999.0,'1111122,1111122,1111122' 
DISL,ioos:station:DISL:MHPA:1,2010-03-03T19:00:00Z,30.6671,-87.9365,8.5,5.41,311.8,-9999.0,'1111122,1111122,1111122' 
DISL,ioos:station:DISL:MHPA:1,2010-03-03T19:30:00Z,30.6671,-87.9365,8.5,4.53,314.8,-9999.0,'1111122,1111122,1111122' 
DISL,ioos:station:DISL:MHPA:1,2010-03-03T20:00:00Z,30.6671,-87.9365,8.5,5.42,295.8,-9999.0,'1111122,1111122,1111122' 
DISL,ioos:station:DISL:MHPA:1,2010-03-03T20:30:00Z,30.6671,-87.9365,8.5,5.03,295.3,-9999.0,'1111122,1111122,1111122' 
DISL,ioos:station:DISL:MHPA:1,2010-03-03T21:00:00Z,30.6671,-87.9365,8.5,4.58,310.7,-9999.0,'1111122,1111122,1111122' 
DISL,ioos:station:DISL:MHPA:1,2010-03-03T21:30:00Z,30.6671,-87.9365,8.5,5.18,313.9,-9999.0,'1111122,1111122,1111122' 
DISL,ioos:station:DISL:MHPA:1,2010-03-03T22:00:00Z,30.6671,-87.9365,8.5,4.68,317.2,-9999.0,'1111122,1111122,1111122' 
DISL,ioos:station:DISL:MHPA:1,2010-03-03T22:30:00Z,30.6671,-87.9365,8.5,4.82,327.0,-9999.0,'1111122,1111122,1111122' 
DISL,ioos:station:DISL:MHPA:1,2010-03-03T23:00:00Z,30.6671,-87.9365,8.5,4.42,311.8,-9999.0,'1111122,1111122,1111122' 
DISL,ioos:station:DISL:MHPA:1,2010-03-03T23:30:00Z,30.6671,-87.9365,8.5,4.24,309.8,-9999.0,'1111122,1111122,1111122' 
DISL,ioos:station:DISL:MHPA:1,2010-03-04T00:00:00Z,30.6671,-87.9365,8.5,3.78,319.6,-9999.0,'1111122,1111122,1111122' 
DISL,ioos:station:DISL:MHPA:1,2010-03-04T00:30:00Z,30.6671,-87.9365,8.5,2.85,314.8,-9999.0,'1111122,1111122,1111122' 
DISL,ioos:station:DISL:MHPA:1,2010-03-04T01:00:00Z,30.6671,-87.9365,8.5,2.35,314.2,-9999.0,'1111122,1111122,1111122' 
DISL,ioos:station:DISL:MHPA:1,2010-03-04T01:30:00Z,30.6671,-87.9365,8.5,2.28,328.0,-9999.0,'1111122,1111122,1111122' 
DISL,ioos:station:DISL:MHPA:1,2010-03-04T02:00:00Z,30.6671,-87.9365,8.5,2.68,319.8,-9999.0,'1111122,1111122,1111122' 
DISL,ioos:station:DISL:MHPA:1,2010-03-04T02:30:00Z,30.6671,-87.9365,8.5,2.49,353.9,-9999.0,'1111122,1111122,1111122' 
DISL,ioos:station:DISL:MHPA:1,2010-03-04T03:00:00Z,30.6671,-87.9365,8.5,3.0,331.1,-9999.0,'1111122,1111122,1111122' 
DISL,ioos:station:DISL:MHPA:1,2010-03-04T03:30:00Z,30.6671,-87.9365,8.5,3.71,334.1,-9999.0,'1111122,1111122,1111122' 
DISL,ioos:station:DISL:MHPA:1,2010-03-04T04:00:00Z,30.6671,-87.9365,8.5,2.71,344.5,-9999.0,'1111122,1111122,1111122' 
DISL,ioos:station:DISL:MHPA:1,2010-03-04T04:30:00Z,30.6671,-87.9365,8.5,3.05,342.5,-9999.0,'1111122,1111122,1111122' 
DISL,ioos:station:DISL:MHPA:1,2010-03-04T05:00:00Z,30.6671,-87.9365,8.5,3.2,351.9,-9999.0,'1111122,1111122,1111122' 
DISL,ioos:station:DISL:MHPA:1,2010-03-04T05:30:00Z,30.6671,-87.9365,8.5,2.59,342.7,-9999.0,'1111122,1111122,1111122' 
DISL,ioos:station:DISL:MHPA:1,2010-03-04T06:00:00Z,30.6671,-87.9365,8.5,1.7,327.6,-9999.0,'1111122,1111122,1111122' 
DISL,ioos:station:DISL:MHPA:1,2010-03-04T06:30:00Z,30.6671,-87.9365,8.5,1.62,346.9,-9999.0,'1111122,1111122,1111122' 
DISL,ioos:station:DISL:MHPA:1,2010-03-04T07:00:00Z,30.6671,-87.9365,8.5,1.39,342.5,-9999.0,'1111122,1111122,1111122' 
DISL,ioos:station:DISL:MHPA:1,2010-03-04T07:30:00Z,30.6671,-87.9365,8.5,1.46,347.6,-9999.0,'1111122,1111122,1111122' 
DISL,ioos:station:DISL:MHPA:1,2010-03-04T08:00:00Z,30.6671,-87.9365,8.5,0.82,359.6,-9999.0,'1111122,1111122,1111122' 
DISL,ioos:station:DISL:MHPA:1,2010-03-04T08:30:00Z,30.6671,-87.9365,8.5,1.38,355.9,-9999.0,'1111122,1111122,1111122' 
DISL,ioos:station:DISL:MHPA:1,2010-03-04T09:00:00Z,30.6671,-87.9365,8.5,1.34,354.6,-9999.0,'1111122,1111122,1111122' 
DISL,ioos:station:DISL:MHPA:1,2010-03-04T09:30:00Z,30.6671,-87.9365,8.5,0.72,19.1,-9999.0,'1111122,1111122,1111122' 
DISL,ioos:station:DISL:MHPA:1,2010-03-04T10:00:00Z,30.6671,-87.9365,8.5,0.09,6.162,-9999.0,'1111122,1111122,1111122' 
DISL,ioos:station:DISL:MHPA:1,2010-03-04T10:30:00Z,30.6671,-87.9365,8.5,1.02,350.0,-9999.0,'1111122,1111122,1111122' 
DISL,ioos:station:DISL:MHPA:1,2010-03-04T11:00:00Z,30.6671,-87.9365,8.5,0.79,336.2,-9999.0,'1111122,1111122,1111122' 
DISL,ioos:station:DISL:MHPA:1,2010-03-04T11:30:00Z,30.6671,-87.9365,8.5,0.34,343.2,-9999.0,'1111122,1111122,1111122' 
DISL,ioos:station:DISL:MHPA:1,2010-03-04T12:00:00Z,30.6671,-87.9365,8.5,0.51,319.3,-9999.0,'1111122,1111122,1111122' 
DISL,ioos:station:DISL:MHPA:1,2010-03-04T12:30:00Z,30.6671,-87.9365,8.5,1.27,340.9,-9999.0,'1111122,1111122,1111122' 
DISL,ioos:station:DISL:MHPA:1,2010-03-04T13:00:00Z,30.6671,-87.9365,8.5,1.29,323.4,-9999.0,'1111122,1111122,1111122' 
DISL,ioos:station:DISL:MHPA:1,2010-03-04T13:30:00Z,30.6671,-87.9365,8.5,2.09,332.2,-9999.0,'1111122,1111122,1111122' 
DISL,ioos:station:DISL:MHPA:1,2010-03-04T14:00:00Z,30.6671,-87.9365,8.5,2.37,329.3,-9999.0,'1111122,1111122,1111122' 
DISL,ioos:station:DISL:MHPA:1,2010-03-04T14:30:00Z,30.6671,-87.9365,8.5,2.66,347.4,-9999.0,'1111122,1111122,1111122' 
DISL,ioos:station:DISL:MHPA:1,2010-03-04T15:00:00Z,30.6671,-87.9365,8.5,3.16,357.8,-9999.0,'1111122,1111122,1111122' 
DISL,ioos:station:DISL:MHPA:1,2010-03-04T15:30:00Z,30.6671,-87.9365,8.5,2.86,354.1,-9999.0,'1111122,1111122,1111122' 
DISL,ioos:station:DISL:MHPA:1,2010-03-04T16:00:00Z,30.6671,-87.9365,8.5,4.46,336.8,-9999.0,'1111122,1111122,1111122' 
DISL,ioos:station:DISL:MHPA:1,2010-03-04T16:30:00Z,30.6671,-87.9365,8.5,4.13,358.0,-9999.0,'1111122,1111122,1111122' 
DISL,ioos:station:DISL:MHPA:1,2010-03-04T17:00:00Z,30.6671,-87.9365,8.5,5.13,345.1,-9999.0,'1111122,1111122,1111122' 
DISL,ioos:station:DISL:MHPA:1,2010-03-04T17:30:00Z,30.6671,-87.9365,8.5,4.72,343.0,-9999.0,'1111122,1111122,1111122' 
DISL,ioos:station:DISL:MHPA:1,2010-03-04T18:00:00Z,30.6671,-87.9365,8.5,4.24,335.9,-9999.0,'1111122,1111122,1111122' 
DISL,ioos:station:DISL:MHPA:1,2010-03-04T18:30:00Z,30.6671,-87.9365,8.5,4.71,336.5,-9999.0,'1111122,1111122,1111122' 
DISL,ioos:station:DISL:MHPA:1,2010-03-04T19:00:00Z,30.6671,-87.9365,8.5,5.12,322.8,-9999.0,'1111122,1111122,1111122' 
DISL,ioos:station:DISL:MHPA:1,2010-03-04T19:30:00Z,30.6671,-87.9365,8.5,4.34,337.4,-9999.0,'1111122,1111122,1111122' 
DISL,ioos:station:DISL:MHPA:1,2010-03-04T20:00:00Z,30.6671,-87.9365,8.5,3.25,338.3,-9999.0,'1111122,1111122,1111122' 
DISL,ioos:station:DISL:MHPA:1,2010-03-04T20:30:00Z,30.6671,-87.9365,8.5,4.44,340.7,-9999.0,'1111122,1111122,1111122' 
DISL,ioos:station:DISL:MHPA:1,2010-03-04T21:00:00Z,30.6671,-87.9365,8.5,4.45,316.6,-9999.0,'1111122,1111122,1111122' 
DISL,ioos:station:DISL:MHPA:1,2010-03-04T21:30:00Z,30.6671,-87.9365,8.5,4.54,335.9,-9999.0,'1111122,1111122,1111122' 
DISL,ioos:station:DISL:MHPA:1,2010-03-04T22:00:00Z,30.6671,-87.9365,8.5,3.95,343.3,-9999.0,'1111122,1111122,1111122' 
DISL,ioos:station:DISL:MHPA:1,2010-03-04T22:30:00Z,30.6671,-87.9365,8.5,4.26,345.0,-9999.0,'1111122,1111122,1111122' 
DISL,ioos:station:DISL:MHPA:1,2010-03-04T23:00:00Z,30.6671,-87.9365,8.5,3.26,333.7,-9999.0,'1111122,1111122,1111122' 
DISL,ioos:station:DISL:MHPA:1,2010-03-04T23:30:00Z,30.6671,-87.9365,8.5,2.53,338.0,-9999.0,'1111122,1111122,1111122' 
DISL,ioos:station:DISL:MHPA:1,2010-03-05T00:00:00Z,30.6671,-87.9365,8.5,1.89,337.9,-9999.0,'1111122,1111122,1111122' 
DISL,ioos:station:DISL:MHPA:1,2010-03-05T00:30:00Z,30.6671,-87.9365,8.5,1.36,351.8,-9999.0,'1111122,1111122,1111122' 
DISL,ioos:station:DISL:MHPA:1,2010-03-05T01:00:00Z,30.6671,-87.9365,8.5,1.16,331.4,-9999.0,'1111122,1111122,1111122' 
DISL,ioos:station:DISL:MHPA:1,2010-03-05T01:30:00Z,30.6671,-87.9365,8.5,0.87,15.12,-9999.0,'1111122,1111122,1111122' 
DISL,ioos:station:DISL:MHPA:1,2010-03-05T02:00:00Z,30.6671,-87.9365,8.5,0.7,29.35,-9999.0,'1111122,1111122,1111122' 
DISL,ioos:station:DISL:MHPA:1,2010-03-05T02:30:00Z,30.6671,-87.9365,8.5,0.72,8.47,-9999.0,'1111122,1111122,1111122' 
DISL,ioos:station:DISL:MHPA:1,2010-03-05T03:00:00Z,30.6671,-87.9365,8.5,0.85,28.29,-9999.0,'1111122,1111122,1111122' 
DISL,ioos:station:DISL:MHPA:1,2010-03-05T03:30:00Z,30.6671,-87.9365,8.5,0.7,46.62,-9999.0,'1111122,1111122,1111122' 
DISL,ioos:station:DISL:MHPA:1,2010-03-05T04:00:00Z,30.6671,-87.9365,8.5,0.33,24.94,-9999.0,'1111122,1111122,1111122' 
DISL,ioos:station:DISL:MHPA:1,2010-03-05T04:30:00Z,30.6671,-87.9365,8.5,0.83,39.29,-9999.0,'1111122,1111122,1111122' 